Location: Newark
(51.2625°N, 13.3939°E)
Time: 17:21:52
(UTC+00:00)

Vanguard 2 - All Passes

Search period start: 21 November 2019 00:00
Search period end: 01 December 2019 00:00
Orbit: 554 x 2937 km, 32.9° (Epoch: 20 November)

Date Brightness Start Highest point End Pass type
(mag) Time Alt. Az. Time Alt. Az. Time Alt. Az.
21 Nov - 04:55:29 10° SSE 04:56:33 10° SSE 04:57:35 10° SSE visible
21 Nov - 06:58:38 10° SSW 07:05:00 18° S 07:09:53 10° SE daylight
21 Nov - 09:08:04 10° SW 09:12:47 16° SSW 09:16:29 10° SSE daylight
22 Nov - 05:08:29 10° S 05:14:11 14° SSE 05:18:55 10° SE visible
22 Nov - 07:15:28 10° SW 07:22:38 20° S 07:27:55 10° SE daylight
22 Nov - 09:25:48 10° SW 09:30:16 16° SSW 09:33:49 10° SSE daylight
23 Nov - 05:24:05 10° SSW 05:31:49 18° SSE 05:37:50 10° SE visible
23 Nov - 07:32:38 10° SW 07:40:14 22° S 07:45:44 10° SE daylight
23 Nov - 09:43:48 10° SW 09:47:42 14° SSW 09:50:54 10° S daylight
24 Nov - 03:36:25 10° SSE 03:40:36 12° SSE 03:44:22 10° SE visible
24 Nov - 05:40:25 10° SSW 05:49:27 22° SSE 05:56:10 10° ESE visible
24 Nov - 07:50:02 10° SW 07:57:48 23° S 08:03:21 10° SE daylight
24 Nov - 10:02:16 10° SW 10:05:03 12° SSW 10:07:29 10° S daylight
25 Nov - 03:50:24 10° S 03:58:09 16° SSE 04:04:35 10° ESE visible
25 Nov - 05:57:12 10° SW 06:07:05 25° S 06:14:11 10° SE visible
25 Nov - 08:07:38 10° WSW 08:15:20 22° SSW 08:20:51 10° SE daylight
26 Nov - 04:05:56 10° SSW 04:15:44 20° SSE 04:23:28 10° ESE visible
26 Nov - 06:14:17 10° SW 06:24:42 27° S 06:32:02 10° SE daylight
26 Nov - 08:25:25 10° WSW 08:32:47 21° SSW 08:38:10 10° SSE daylight
27 Nov - 02:19:06 10° SSE 02:24:11 12° SE 02:28:53 10° SE visible
27 Nov - 04:22:09 10° SSW 04:33:20 24° SSE 04:41:50 10° ESE visible
27 Nov - 06:31:36 10° SW 06:42:18 28° S 06:49:44 10° SE daylight
27 Nov - 08:43:24 10° WSW 08:50:10 19° SSW 08:55:16 10° SSE daylight
28 Nov - 02:32:48 10° S 02:41:38 17° SSE 02:49:17 10° ESE visible
28 Nov - 04:38:48 10° SW 04:50:55 28° SSE 04:59:54 10° ESE visible
28 Nov - 06:49:06 10° WSW 06:59:51 28° S 07:07:18 10° SE daylight
28 Nov - 09:01:38 10° WSW 09:07:29 16° SSW 09:12:02 10° S daylight
29 Nov - 02:48:06 10° SSW 02:59:07 21° SSE 03:08:18 10° ESE visible
29 Nov - 04:55:47 10° SW 05:08:31 30° S 05:17:47 10° ESE visible
29 Nov - 07:06:46 10° WSW 07:17:21 28° SSW 07:24:43 10° SE daylight
29 Nov - 09:20:23 10° WSW 09:24:42 13° SW 09:28:18 10° S daylight
30 Nov - 01:03:20 10° SSE 01:07:28 11° SE 01:11:28 10° SE visible
30 Nov - 03:04:09 10° SSW 03:16:37 25° SSE 03:26:46 10° ESE visible
30 Nov - 05:12:59 10° SW 05:26:07 32° S 05:35:32 10° ESE visible
30 Nov - 07:24:35 10° WSW 07:34:47 26° SSW 07:41:59 10° SSE daylight
30 Nov - 09:41:09 10° SW 09:41:49 10° SW 09:42:27 10° SW daylight
